Weather in Tottori

Japan     35°30′15″N   134°13′39″E
temp.,
°C
wind,
m/s
gust,
m/s
humid.,
%
clouds,
%
prec.,
mm/h
press.,
hPa
HPBL,
m
2 july, sat
sat200:00+24sse22750 0.0 101519
03:00+24sse22760 0.0 101522
06:00+24s22770 0.0 101533
09:00+30se02590 0.0 1015475
12:00+30n34598 0.0 1013964
15:00+30nne235873 0.0 1012392
18:00+29sse14619 0.0 1012240
21:00+25sse2378100 0.0 101362
3 july, sun
sun300:00+24sse3582100 0.0 101398
03:00+24s358497 0.0 1012129
06:00+23s4689100 0.5 1012151
09:00+25s4586100 1.5 1012162
12:00+25s3489100 2.9 1012281
15:00+26s358896 7.1 1011429
18:00+24s2392100 5.6 101066
21:00+23s3494100 10.5 101299
4 july, mon
mon400:00+22s4694100 2.0 1011136
03:00+22sse4693100 3.1 1010116
06:00+22s4692100 0.1 1011148
09:00+23s359397 1.0 1011242
12:00+24s4685100 0.3 1011298
15:00+24s3587100 0.6 1010161
18:00+24sse3587100 0.0 1010125
21:00+23sse3490100 0.1 101197
5 july, tue
tue500:00+23sse4692100 0.2 1011119
03:00+23s4790100 0.2 1011154
06:00+22sse4695100 3.7 1012210
09:00+22sse3595100 10.5 1012234
12:00+22sse3794100 4.3 1012354
15:00+22sse3692100 5.4 1011260
18:00+22sse359199 0.1 1011215
21:00+22sse3592100 0.1 1012162
6 july, wed
wed600:00+22sse3491100 0.1 1012140
03:00+21sse2395100 2.0 1011106
06:00+22sse3492100 0.5 1012138
09:00+22s2492100 1.2 1012151
12:00+24s258463 1.7 1012354
15:00+24w1283100 1.8 1011206
18:00+23sse228765 0.1 101171
21:00+23sse2288100 0.1 101260